OPTUS D2

Last updated on Tue Oct 28 2025 00:02:47 GMT+0000 (Coordinated Universal Time)

1 32252U 07044A 25300.50378213 .00000051 00000+0 00000+0 0 9992 2 32252 1.4689 84.8836 0003222 133.6450 251.0263 0.99340288 66231
UTC large
Height (km)
Speed (km/s)
/
Latitude / Longitude
Inclination (degrees)
Orbital Period (minutes)
Azimuth
Elevation
Range (km)
Doppler Factor

Next 0 passes for location: London (51.5072 / 0.1276)

Sorry there are no passes over London.